Weather History for KLNK - October, 2011

Change the Weather History Date:

Monday, October 10, 2011

  Actual Average Record
Temperature  
Mean Temperature 61 °F 56 °F  
Max Temperature 71 °F 68 °F 91 °F (1963)
Min Temperature 50 °F 43 °F 23 °F (2012)
Degree Days  
Heating Degree Days 4 10  
Month to date heating degree days 21 87  
Since 1 July heating degree days 178 185  
Cooling Degree Days 0 1  
Month to date cooling degree days 37 10  
Year to date cooling degree days 1296 1168  
Growing Degree Days 12 (Base 50)    
Moisture  
Dew Point 54 °F    
Average Humidity 76    
Maximum Humidity 100    
Minimum Humidity 51    
Precipitation  
Precipitation 0.26 in 0.07 in 2.26 in (1973)
Month to date precipitation 0.78 0.73  
Year to date precipitation 25.78 25.33  
Snow  
Snow 0.00 in 0.00 in - ()
Month to date snowfall 0.0 0.0  
Since 1 July snowfall 0.0 T  
Snow Depth 0.00 in    
Sea Level Pressure  
Sea Level Pressure 30.02 in    
Wind  
Wind Speed 7 mph (SSW)    
Max Wind Speed 13 mph    
Max Gust Speed 16 mph    
Visibility 9 miles    
Events Rain    
T = Trace of Precipitation, MM = Missing Value Source: NWS Daily Summary

Daily Weather History Graph

Daily Weather History Graph

Search for Another Location

Airport or City:

Trip Planner

Search our weather history database for the weather conditions in past years. The results will help you decide how hot, cold, wet, or windy it might be!

Date:

Astronomy

Oct. 10, 2011 Rise Set
Actual Time 7:32 AM CDT 6:54 PM CDT
Civil Twilight 7:05 AM CDT 7:22 PM CDT
Nautical Twilight 6:33 AM CDT 7:53 PM CDT
Astronomical Twilight 6:01 AM CDT 8:25 PM CDT
Moon 5:59 PM CDT (10/10) 6:15 AM CDT (10/10)
Length of Visible Light 12h 16m
Length of Day
11h 22m
Waxing Gibbous, 98% of the Moon is Illuminated
Oct 10
Waxing Gibbous
Oct 11
Full
Oct 19
Last Quarter
Oct 26
New
Nov 2
First Quarter

Hourly Weather History & Observations

Time (CDT) Temp. Dew Point Humidity Pressure Visibility Wind Dir Wind Speed Gust Speed Precip Events Conditions
12:54 AM 59.0 °F 57.9 °F 96% 30.05 in 3.0 mi South 6.9 mph - 0.13 in Rain Rain
1:54 AM 57.9 °F 57.9 °F 100% 30.04 in 10.0 mi SSE 6.9 mph - 0.07 in Rain Light Rain
2:54 AM 57.9 °F 57.0 °F 97% 30.04 in 8.0 mi SSE 6.9 mph - 0.08 in Rain Light Rain
3:04 AM 57.2 °F 57.2 °F 100% 30.06 in 8.0 mi SSW 5.8 mph - 0.01 in Rain Light Rain
3:13 AM 57.2 °F 57.2 °F 100% 30.06 in 7.0 mi South 4.6 mph - 0.02 in Rain Light Rain
3:23 AM 57.2 °F 57.2 °F 100% 30.05 in 7.0 mi SSE 6.9 mph - 0.03 in Rain Light Rain
3:35 AM 57.2 °F 57.2 °F 100% 30.05 in 8.0 mi SSE 5.8 mph - 0.04 in Rain Light Rain
3:44 AM 57.2 °F 57.2 °F 100% 30.04 in 9.0 mi SSE 6.9 mph - 0.05 in Rain Light Rain
3:54 AM 57.9 °F 57.0 °F 97% 30.02 in 9.0 mi South 8.1 mph - 0.05 in Rain Light Rain
4:12 AM 57.2 °F 57.2 °F 100% 30.04 in 10.0 mi South 8.1 mph - 0.01 in Rain Light Rain
4:40 AM 57.2 °F 57.2 °F 100% 30.04 in 8.0 mi South 6.9 mph - 0.03 in Rain Light Rain
4:54 AM 57.9 °F 57.0 °F 97% 30.02 in 10.0 mi South 6.9 mph - 0.03 in Rain Light Rain
5:09 AM 57.2 °F 57.2 °F 100% 30.03 in 10.0 mi South 5.8 mph - 0.00 in Rain Light Rain
5:18 AM 57.2 °F 57.2 °F 100% 30.03 in 10.0 mi South 5.8 mph - 0.00 in Rain Light Rain
5:41 AM 57.2 °F 57.2 °F 100% 30.04 in 10.0 mi South 5.8 mph - 0.00 in Rain Light Rain
5:51 AM 57.2 °F 57.2 °F 100% 30.04 in 10.0 mi South 5.8 mph - 0.00 in Rain Light Rain
5:54 AM 57.9 °F 57.0 °F 97% 30.03 in 10.0 mi South 5.8 mph - 0.00 in Rain Light Rain
6:54 AM 57.0 °F 55.9 °F 96% 30.04 in 10.0 mi SW 4.6 mph - 0.01 in   Overcast
7:07 AM 57.2 °F 55.4 °F 94% 30.04 in 10.0 mi SSW 4.6 mph - N/A   Overcast
7:17 AM 57.2 °F 55.4 °F 94% 30.04 in 10.0 mi South 5.8 mph - N/A   Overcast
7:29 AM 57.2 °F 55.4 °F 94% 30.04 in 1.8 mi SW 5.8 mph - 0.02 in Rain Light Rain
7:35 AM 57.2 °F 55.4 °F 94% 30.05 in 3.0 mi SW 5.8 mph - 0.02 in Rain Light Rain
7:54 AM 57.2 °F 55.4 °F 94% 30.04 in 10.0 mi SW 4.6 mph - N/A   Overcast
8:08 AM 57.2 °F 55.4 °F 94% 30.05 in 10.0 mi SW 5.8 mph - 0.01 in   Overcast
8:23 AM 57.2 °F 55.4 °F 94% 30.05 in 10.0 mi SW 4.6 mph - 0.01 in   Overcast
8:54 AM 57.0 °F 53.1 °F 87% 30.05 in 10.0 mi WSW 9.2 mph - 0.01 in   Overcast
9:12 AM 57.2 °F 53.6 °F 88% 30.06 in 10.0 mi West 6.9 mph - N/A   Scattered Clouds
9:54 AM 57.9 °F 54.0 °F 87% 30.05 in 10.0 mi SW 8.1 mph - N/A   Clear
10:54 AM 61.0 °F 54.0 °F 78% 30.05 in 10.0 mi SSW 6.9 mph - N/A   Clear
11:54 AM 63.0 °F 53.1 °F 70% 30.04 in 10.0 mi SW 8.1 mph - N/A   Clear
12:54 PM 64.9 °F 51.1 °F 61% 30.02 in 10.0 mi SW 10.4 mph - N/A   Clear
1:54 PM 68.0 °F 52.0 °F 56% 29.99 in 10.0 mi SW 5.8 mph - N/A   Clear
2:54 PM 70.0 °F 50.0 °F 49% 29.96 in 8.0 mi WSW 8.1 mph - N/A   Clear
3:54 PM 70.0 °F 50.0 °F 49% 29.95 in 10.0 mi South 8.1 mph - N/A   Clear
4:54 PM 70.0 °F 50.0 °F 49% 29.94 in 10.0 mi South 6.9 mph - N/A   Clear
5:54 PM 70.0 °F 50.0 °F 49% 29.92 in 10.0 mi South 9.2 mph - N/A   Clear
6:54 PM 64.0 °F 50.0 °F 60% 29.92 in 10.0 mi SSE 4.6 mph - N/A   Clear
7:54 PM 63.0 °F 48.9 °F 60% 29.94 in 10.0 mi SSE 4.6 mph - N/A   Clear
8:54 PM 55.9 °F 48.9 °F 77% 29.94 in 10.0 mi South 8.1 mph - N/A   Clear
9:54 PM 54.0 °F 48.9 °F 83% 29.96 in 10.0 mi South 6.9 mph - N/A   Clear
10:54 PM 53.1 °F 48.9 °F 86% 29.96 in 10.0 mi South 5.8 mph - N/A   Clear
11:54 PM 55.0 °F 51.1 °F 86% 29.95 in 10.0 mi SSE 4.6 mph - N/A   Clear